Volver al catálogo

FENGYUN 1C DEB

ActivoPO
NORAD 31282·DEBRIS·🇨🇳 China

Lanzado May 10, 1999 desde Taiyuan Satellite Launch Center

Loading…

Próximos Pases (próximas 24 horas)

TLE

ActualizadoSource: Space-Track

Época: Sep 14, 2026, 03:09 UTC

1 31282U 99025BNQ 26257.13138922  .00000280  00000-0  89722-4 0  9994
2 31282  99.2306 202.2924 0126771 193.8275 165.9429 14.43844072 10843

Sigue FENGYUN 1C DEB en tiempo real con AllMySat

Download on the App Store